Port Angeles, WA
on Thursday, January 3, 2013

Thursday
Previous Day Next Day
Daily Summary
 ActualAverageRecord
Temperature
Mean Temperature °F °F  
Max Temperature 41°F 43°F 55°F (1962)
Min Temperature 26°F 32°F 13°F (1950)
Degree Days
Heating Degree Days 32    
Moisture
Dew Point 30°F   
Average Humidity 84    
Maximum Humidity 96    
Minimum Humidity 65    
Precipitation
Precipitation 0.00 in in in ()
Wind
Wind Speed 4 mph   
Max Wind Speed 12 mph   
Max Gust Speed mph   
Visibility 10 miles   
Events Rain   
Averages and records for this station are not official NWS values.
Key: T is trace of precipitation, MM is missing value
Source: NWS Daily Summary
Seasonal Weather Averages
Time(PST)TemperatureDew PointHumidity Pressure Visibility Wind DirectionWind SpeedGust SpeedPrecipitationEvents Conditions
12:53 AM 33.1°F 30.0°F 89% 30.19 in 10.0 miles North - - N/A   Clear
1:53 AM 34.0°F 32.0°F 92% 30.18 in 10.0 miles North - - N/A   Partly Cloudy
2:53 AM 30.0°F 28.0°F 92% 30.18 in 10.0 miles North - - N/A   Clear
3:44 AM 28.9°F 28.0°F 96% 30.16 in 7.0 miles North - - N/A   Mostly Cloudy
4:53 AM 28.9°F 28.0°F 96% 30.14 in 9.0 miles SE 3.5 mph - N/A   Clear
5:53 AM 28.9°F 26.1°F 89% 30.13 in 10.0 miles Calm Calm - N/A   Clear
6:53 AM 26.1°F 25.0°F 96% 30.12 in 10.0 miles SE 4.6 mph - N/A   Clear
7:53 AM 28.0°F 26.1°F 92% 30.11 in 7.0 miles North - - N/A   Clear
8:53 AM 28.0°F 27.0°F 96% 30.11 in 10.0 miles Calm Calm - N/A   Clear
9:53 AM 33.1°F 30.9°F 92% 30.12 in 10.0 miles North - - N/A   Clear
10:53 AM 37.9°F 30.9°F 76% 30.12 in 10.0 miles North - - N/A   Clear
11:45 AM 39.9°F 32.0°F 73% 30.11 in 10.0 miles North - - N/A   Mostly Cloudy
11:53 AM 39.9°F 30.9°F 70% 30.12 in 10.0 miles North - - N/A   Mostly Cloudy
12:53 PM 39.9°F 28.9°F 65% 30.10 in 10.0 miles NE 3.5 mph - N/A   Clear
1:53 PM 41.0°F 30.0°F 65% 30.10 in 10.0 miles Variable 3.5 mph - N/A   Clear
2:53 PM 39.9°F 30.0°F 68% 30.09 in 10.0 miles West 4.6 mph - N/A   Clear
3:53 PM 39.0°F 30.0°F 70% 30.08 in 10.0 miles Calm Calm - N/A   Overcast
4:53 PM 36.0°F 30.0°F 79% 30.08 in 10.0 miles SE 4.6 mph - N/A   Mostly Cloudy
5:53 PM 36.0°F 32.0°F 86% 30.09 in 10.0 miles Calm Calm - N/A   Overcast
6:53 PM 37.0°F 33.1°F 86% 30.08 in 10.0 miles WSW 6.9 mph - 0.00 in   Overcast
7:53 PM 37.9°F 33.1°F 83% 30.07 in 10.0 miles WSW 11.5 mph - 0.00 in Rain Light Rain
8:53 PM 37.9°F 34.0°F 86% 30.06 in 10.0 miles WSW 11.5 mph - 0.00 in Rain Light Rain
9:53 PM 37.0°F 34.0°F 89% 30.06 in 10.0 miles WSW 10.4 mph - 0.00 in   Overcast
10:53 PM 36.0°F 33.1°F 89% 30.07 in 10.0 miles WSW 6.9 mph - N/A   Mostly Cloudy
11:50 PM 37.4°F 33.8°F 87% 30.08 in 10.0 miles WSW 6.9 mph - N/A   Mostly Cloudy
11:53 PM 37.0°F 34.0°F 89% 30.09 in 10.0 miles WSW 8.1 mph - N/A   Mostly Cloudy
Moon Phase
Jan. 03 Jan. 04 Jan. 11 Jan. 18 Jan. 26
Sunrise:08:04 AM (PST) Moon Rise:11:49 PM (PST)1/3
Sunset:04:33 PM (PST) Moon Set:10:47 AM (PST)1/3

Copyright © 2014 The Weather Underground, Inc.